#Datum;Uhrzeit;WR;Pac;DaySum;Status;WR;Pac;DaySum;Status;Pdc1;Udc;Temp;WR;Pac;DaySum;Status;Pdc1;Udc;Temp;WR;Pac;DaySum;Status;Pdc1;Udc;Temp;WR;Pac;DaySum;Status;Pdc1;Pdc2;Udc1;Udc2;Temp;WR;Pac;DaySum;Status;Pdc1;Pdc2;Udc1;Udc2;Temp;WR;Pac;DaySum;Status;Pdc1;Udc;Temp;WR;Pac;DaySum;Status;Pdc1;Udc;Temp;WR;Pac;DaySum;Status;Pdc1;Udc;Temp
28.09.21;23:55:00;1;386;13210;0;2;0;5896;0;0;0;0;3;0;3746;0;0;0;0;4;0;5122;0;0;0;0;5;0;12961;0;0;0;0;0;0;6;0;9720;0;0;0;0;0;0;7;0;6644;0;0;0;0;8;0;6650;0;0;0;0;9;0;3566;0;0;0;0
28.09.21;23:50:00;1;395;13178;0;2;0;5896;0;0;0;0;3;0;3746;0;0;0;0;4;0;5122;0;0;0;0;5;0;12961;0;0;0;0;0;0;6;0;9720;0;0;0;0;0;0;7;0;6644;0;0;0;0;8;0;6650;0;0;0;0;9;0;3566;0;0;0;0
28.09.21;23:45:00;1;350;13146;0;2;0;5896;0;0;0;0;3;0;3746;0;0;0;0;4;0;5122;0;0;0;0;5;0;12961;0;0;0;0;0;0;6;0;9720;0;0;0;0;0;0;7;0;6644;0;0;0;0;8;0;6650;0;0;0;0;9;0;3566;0;0;0;0
28.09.21;23:40:00;1;333;13117;0;2;0;5896;0;0;0;0;3;0;3746;0;0;0;0;4;0;5122;0;0;0;0;5;0;12961;0;0;0;0;0;0;6;0;9720;0;0;0;0;0;0;7;0;6644;0;0;0;0;8;0;6650;0;0;0;0;9;0;3566;0;0;0;0
28.09.21;23:35:00;1;268;13089;0;2;0;5896;0;0;0;0;3;0;3746;0;0;0;0;4;0;5122;0;0;0;0;5;0;12961;0;0;0;0;0;0;6;0;9720;0;0;0;0;0;0;7;0;6644;0;0;0;0;8;0;6650;0;0;0;0;9;0;3566;0;0;0;0
28.09.21;23:30:00;1;313;13067;0;2;0;5896;0;0;0;0;3;0;3746;0;0;0;0;4;0;5122;0;0;0;0;5;0;12961;0;0;0;0;0;0;6;0;9720;0;0;0;0;0;0;7;0;6644;0;0;0;0;8;0;6650;0;0;0;0;9;0;3566;0;0;0;0
28.09.21;23:25:00;1;386;13039;0;2;0;5896;0;0;0;0;3;0;3746;0;0;0;0;4;0;5122;0;0;0;0;5;0;12961;0;0;0;0;0;0;6;0;9720;0;0;0;0;0;0;7;0;6644;0;0;0;0;8;0;6650;0;0;0;0;9;0;3566;0;0;0;0
28.09.21;23:20:00;1;412;13006;0;2;0;5896;0;0;0;0;3;0;3746;0;0;0;0;4;0;5122;0;0;0;0;5;0;12961;0;0;0;0;0;0;6;0;9720;0;0;0;0;0;0;7;0;6644;0;0;0;0;8;0;6650;0;0;0;0;9;0;3566;0;0;0;0
28.09.21;23:15:00;1;372;12972;0;2;0;5896;0;0;0;0;3;0;3746;0;0;0;0;4;0;5122;0;0;0;0;5;0;12961;0;0;0;0;0;0;6;0;9720;0;0;0;0;0;0;7;0;6644;0;0;0;0;8;0;6650;0;0;0;0;9;0;3566;0;0;0;0
28.09.21;23:10:00;1;425;12940;0;2;0;5896;0;0;0;0;3;0;3746;0;0;0;0;4;0;5122;0;0;0;0;5;0;12961;0;0;0;0;0;0;6;0;9720;0;0;0;0;0;0;7;0;6644;0;0;0;0;8;0;6650;0;0;0;0;9;0;3566;0;0;0;0
28.09.21;23:05:00;1;1161;12905;0;2;0;5896;0;0;0;0;3;0;3746;0;0;0;0;4;0;5122;0;0;0;0;5;0;12961;0;0;0;0;0;0;6;0;9720;0;0;0;0;0;0;7;0;6644;0;0;0;0;8;0;6650;0;0;0;0;9;0;3566;0;0;0;0
28.09.21;23:00:00;1;463;12814;0;2;0;5896;0;0;0;0;3;0;3746;0;0;0;0;4;0;5122;0;0;0;0;5;0;12961;0;0;0;0;0;0;6;0;9720;0;0;0;0;0;0;7;0;6644;0;0;0;0;8;0;6650;0;0;0;0;9;0;3566;0;0;0;0
28.09.21;22:55:00;1;461;12774;0;2;0;5896;0;0;0;0;3;0;3746;0;0;0;0;4;0;5122;0;0;0;0;5;0;12961;2;0;0;0;0;0;6;0;9720;2;0;0;0;0;0;7;0;6644;0;0;0;0;8;0;6650;0;0;0;0;9;0;3566;0;0;0;0
28.09.21;22:50:00;1;402;12737;0;2;0;5896;0;0;0;0;3;0;3746;0;0;0;0;4;0;5122;0;0;0;0;5;0;12961;2;0;0;0;0;0;6;0;9720;2;0;0;0;0;0;7;0;6644;0;0;0;0;8;0;6650;0;0;0;0;9;0;3566;0;0;0;0
28.09.21;22:45:00;1;452;12701;0;2;0;5896;0;0;0;0;3;0;3746;0;0;0;0;4;0;5122;0;0;0;0;5;0;12961;2;0;0;0;0;0;6;0;9720;2;0;0;0;0;0;7;0;6644;0;0;0;0;8;0;6650;0;0;0;0;9;0;3566;0;0;0;0
28.09.21;22:40:00;1;480;12663;0;2;0;5896;0;0;0;0;3;0;3746;0;0;0;0;4;0;5122;0;0;0;0;5;0;12961;2;0;0;0;0;0;6;0;9720;2;0;0;0;0;0;7;0;6644;0;0;0;0;8;0;6650;0;0;0;0;9;0;3566;0;0;0;0
28.09.21;22:35:00;1;518;12623;0;2;0;5896;0;0;0;0;3;0;3746;0;0;0;0;4;0;5122;0;0;0;0;5;0;12961;2;0;0;0;0;0;6;0;9720;2;0;0;0;0;0;7;0;6644;0;0;0;0;8;0;6650;0;0;0;0;9;0;3566;0;0;0;0
28.09.21;22:30:00;1;465;12580;0;2;0;5896;0;0;0;0;3;0;3746;0;0;0;0;4;0;5122;0;0;0;0;5;0;12961;2;0;0;0;0;0;6;0;9720;2;0;0;0;0;0;7;0;6644;0;0;0;0;8;0;6650;0;0;0;0;9;0;3566;0;0;0;0
28.09.21;22:25:00;1;495;12541;0;2;0;5896;0;0;0;0;3;0;3746;0;0;0;0;4;0;5122;0;0;0;0;5;0;12961;2;0;0;0;0;0;6;0;9720;2;0;0;0;0;0;7;0;6644;0;0;0;0;8;0;6650;0;0;0;0;9;0;3566;0;0;0;0
28.09.21;22:20:00;1;444;12501;0;2;0;5896;0;0;0;0;3;0;3746;0;0;0;0;4;0;5122;0;0;0;0;5;0;12961;2;0;0;0;0;0;6;0;9720;2;0;0;0;0;0;7;0;6644;0;0;0;0;8;0;6650;0;0;0;0;9;0;3566;0;0;0;0
28.09.21;22:15:00;1;493;12463;0;2;0;5896;0;0;0;0;3;0;3746;0;0;0;0;4;0;5122;0;0;0;0;5;0;12961;2;0;0;0;0;0;6;0;9720;2;0;0;0;0;0;7;0;6644;0;0;0;0;8;0;6650;0;0;0;0;9;0;3566;0;0;0;0
28.09.21;22:10:00;1;433;12422;0;2;0;5896;0;0;0;0;3;0;3746;0;0;0;0;4;0;5122;0;0;0;0;5;0;12961;2;0;0;0;0;0;6;0;9720;2;0;0;0;0;0;7;0;6644;0;0;0;0;8;0;6650;0;0;0;0;9;0;3566;0;0;0;0
28.09.21;22:05:00;1;426;12386;0;2;0;5896;0;0;0;0;3;0;3746;0;0;0;0;4;0;5122;0;0;0;0;5;0;12961;2;0;0;0;0;0;6;0;9720;2;0;0;0;0;0;7;0;6644;0;0;0;0;8;0;6650;0;0;0;0;9;0;3566;0;0;0;0
28.09.21;22:00:00;1;442;12350;0;2;0;5896;0;0;0;0;3;0;3746;0;0;0;0;4;0;5122;0;0;0;0;5;0;12961;2;0;0;0;0;0;6;0;9720;2;0;0;0;0;0;7;0;6644;0;0;0;0;8;0;6650;0;0;0;0;9;0;3566;0;0;0;0
28.09.21;21:55:00;1;452;12313;0;2;0;5896;0;0;0;0;3;0;3746;0;0;0;0;4;0;5122;0;0;0;0;5;0;12961;2;0;0;0;0;0;6;0;9720;2;0;0;0;0;0;7;0;6644;0;0;0;0;8;0;6650;0;0;0;0;9;0;3566;0;0;0;0
28.09.21;21:50:00;1;449;12275;0;2;0;5896;0;0;0;0;3;0;3746;0;0;0;0;4;0;5122;0;0;0;0;5;0;12961;2;0;0;0;0;0;6;0;9720;2;0;0;0;0;0;7;0;6644;0;0;0;0;8;0;6650;0;0;0;0;9;0;3566;0;0;0;0
28.09.21;21:45:00;1;375;12239;0;2;0;5896;0;0;0;0;3;0;3746;0;0;0;0;4;0;5122;0;0;0;0;5;0;12961;2;0;0;0;0;0;6;0;9720;2;0;0;0;0;0;7;0;6644;0;0;0;0;8;0;6650;0;0;0;0;9;0;3566;0;0;0;0
28.09.21;21:40:00;1;385;12207;0;2;0;5896;0;0;0;0;3;0;3746;0;0;0;0;4;0;5122;0;0;0;0;5;0;12961;2;0;0;0;0;0;6;0;9720;2;0;0;0;0;0;7;0;6644;0;0;0;0;8;0;6650;0;0;0;0;9;0;3566;0;0;0;0
28.09.21;21:35:00;1;427;12175;0;2;0;5896;0;0;0;0;3;0;3746;0;0;0;0;4;0;5122;0;0;0;0;5;0;12961;2;0;0;0;0;0;6;0;9720;2;0;0;0;0;0;7;0;6644;0;0;0;0;8;0;6650;0;0;0;0;9;0;3566;0;0;0;0
28.09.21;21:30:00;1;489;12139;0;2;0;5896;0;0;0;0;3;0;3746;0;0;0;0;4;0;5122;0;0;0;0;5;0;12961;2;0;0;0;0;0;6;0;9720;2;0;0;0;0;0;7;0;6644;0;0;0;0;8;0;6650;0;0;0;0;9;0;3566;0;0;0;0
28.09.21;21:25:00;1;494;12099;0;2;0;5896;0;0;0;0;3;0;3746;0;0;0;0;4;0;5122;0;0;0;0;5;0;12961;2;0;0;0;0;0;6;0;9720;2;0;0;0;0;0;7;0;6644;0;0;0;0;8;0;6650;0;0;0;0;9;0;3566;0;0;0;0
28.09.21;21:20:00;1;532;12057;0;2;0;5896;0;0;0;0;3;0;3746;0;0;0;0;4;0;5122;0;0;0;0;5;0;12961;2;0;0;0;0;0;6;0;9720;2;0;0;0;0;0;7;0;6644;0;0;0;0;8;0;6650;0;0;0;0;9;0;3566;0;0;0;0
28.09.21;21:15:00;1;585;12012;0;2;0;5896;0;0;0;0;3;0;3746;0;0;0;0;4;0;5122;0;0;0;0;5;0;12961;2;0;0;0;0;0;6;0;9720;2;0;0;0;0;0;7;0;6644;0;0;0;0;8;0;6650;0;0;0;0;9;0;3566;0;0;0;0
28.09.21;21:10:00;1;544;11962;0;2;0;5896;0;0;0;0;3;0;3746;0;0;0;0;4;0;5122;0;0;0;0;5;0;12961;2;0;0;0;0;0;6;0;9720;2;0;0;0;0;0;7;0;6644;0;0;0;0;8;0;6650;0;0;0;0;9;0;3566;0;0;0;0
28.09.21;21:05:00;1;401;11917;0;2;0;5896;0;0;0;0;3;0;3746;0;0;0;0;4;0;5122;0;0;0;0;5;0;12961;2;0;0;0;0;0;6;0;9720;2;0;0;0;0;0;7;0;6644;0;0;0;0;8;0;6650;0;0;0;0;9;0;3566;0;0;0;0
28.09.21;21:00:00;1;381;11883;0;2;0;5896;0;0;0;0;3;0;3746;0;0;0;0;4;0;5122;0;0;0;0;5;0;12961;2;0;0;0;0;0;6;0;9720;2;0;0;0;0;0;7;0;6644;0;0;0;0;8;0;6650;0;0;0;0;9;0;3566;0;0;0;0
28.09.21;20:55:00;1;660;11851;0;2;0;5896;0;0;0;0;3;0;3746;0;0;0;0;4;0;5122;0;0;0;0;5;0;12961;2;0;0;0;0;0;6;0;9720;2;0;0;0;0;0;7;0;6644;0;0;0;0;8;0;6650;0;0;0;0;9;0;3566;0;0;0;0
28.09.21;20:50:00;1;1069;11775;0;2;0;5896;0;0;0;0;3;0;3746;0;0;0;0;4;0;5122;0;0;0;0;5;0;12961;2;0;0;0;0;0;6;0;9720;2;0;0;0;0;0;7;0;6644;0;0;0;0;8;0;6650;0;0;0;0;9;0;3566;0;0;0;0
28.09.21;20:45:00;1;555;11682;0;2;0;5896;0;0;0;0;3;0;3746;0;0;0;0;4;0;5122;0;0;0;0;5;0;12961;2;0;0;0;0;0;6;0;9720;2;0;0;0;0;0;7;0;6644;0;0;0;0;8;0;6650;0;0;0;0;9;0;3566;0;0;0;0
28.09.21;20:40:00;1;683;11636;0;2;0;5896;0;0;0;0;3;0;3746;0;0;0;0;4;0;5122;0;0;0;0;5;0;12961;2;0;0;0;0;0;6;0;9720;2;0;0;0;0;0;7;0;6644;0;0;0;0;8;0;6650;0;0;0;0;9;0;3566;0;0;0;0
28.09.21;20:35:00;1;730;11578;0;2;0;5896;0;0;0;0;3;0;3746;0;0;0;0;4;0;5122;0;0;0;0;5;0;12961;2;0;0;0;0;0;6;0;9720;2;0;0;0;0;0;7;0;6644;0;0;0;0;8;0;6650;0;0;0;0;9;0;3566;0;0;0;0
28.09.21;20:30:00;1;753;11518;0;2;0;5896;0;0;0;0;3;0;3746;0;0;0;0;4;0;5122;0;0;0;0;5;0;12961;2;0;0;0;0;0;6;0;9720;2;0;0;0;0;0;7;0;6644;0;0;0;0;8;0;6650;0;0;0;0;9;0;3566;0;0;0;0
28.09.21;20:25:00;1;719;11455;0;2;0;5896;0;0;0;0;3;0;3746;0;0;0;0;4;0;5122;0;0;0;0;5;0;12961;2;0;0;0;0;0;6;0;9720;2;0;0;0;0;0;7;0;6644;0;0;0;0;8;0;6650;0;0;0;0;9;0;3566;0;0;0;0
28.09.21;20:20:00;1;707;11396;0;2;0;5896;0;0;0;0;3;0;3746;0;0;0;0;4;0;5122;0;0;0;0;5;0;12961;2;0;0;0;0;0;6;0;9720;2;0;0;0;0;0;7;0;6644;0;0;0;0;8;0;6650;0;0;0;0;9;0;3566;0;0;0;0
28.09.21;20:15:00;1;718;11337;0;2;0;5896;0;0;0;0;3;0;3746;0;0;0;0;4;0;5122;0;0;0;0;5;0;12961;2;0;0;0;0;0;6;0;9720;2;0;0;0;0;0;7;0;6644;0;0;0;0;8;0;6650;0;0;0;0;9;0;3566;0;0;0;0
28.09.21;20:10:00;1;710;11275;0;2;0;5896;0;0;0;0;3;0;3746;0;0;0;0;4;0;5122;0;0;0;0;5;0;12961;2;0;0;0;0;0;6;0;9720;2;0;0;0;0;0;7;0;6644;0;0;0;0;8;0;6650;0;0;0;0;9;0;3566;0;0;0;0
28.09.21;20:05:00;1;682;11215;0;2;0;5896;0;0;0;0;3;0;3746;0;0;0;0;4;0;5122;0;0;0;0;5;0;12961;2;0;0;0;0;0;6;0;9720;2;0;0;0;0;0;7;0;6644;0;0;0;0;8;0;6650;0;0;0;0;9;0;3566;0;0;0;0
28.09.21;20:00:00;1;681;11156;0;2;0;5896;0;0;0;0;3;0;3746;0;0;0;0;4;0;5122;0;0;0;0;5;0;12961;2;0;0;0;0;0;6;0;9720;2;0;0;0;0;0;7;0;6644;0;0;0;0;8;0;6650;0;0;0;0;9;0;3566;0;0;0;0
28.09.21;19:55:00;1;613;11098;0;2;0;5896;0;0;0;0;3;0;3746;0;0;0;0;4;0;5122;0;0;0;0;5;0;12961;2;0;0;0;0;0;6;0;9720;2;0;0;0;0;0;7;0;6644;0;0;0;0;8;0;6650;0;0;0;0;9;0;3566;0;0;0;0
28.09.21;19:50:00;1;540;11046;0;2;0;5896;0;0;0;0;3;0;3746;0;0;0;0;4;0;5122;0;0;0;0;5;0;12961;2;0;0;0;0;0;6;0;9720;2;0;0;0;0;0;7;0;6644;0;0;0;0;8;0;6650;0;0;0;0;9;0;3566;0;0;0;0
28.09.21;19:45:00;1;634;10997;0;2;0;5896;0;0;0;0;3;0;3746;0;0;0;0;4;0;5122;0;0;0;0;5;0;12961;2;0;0;0;0;0;6;0;9720;2;0;0;0;0;0;7;0;6644;0;0;0;0;8;0;6650;0;0;0;0;9;0;3566;0;0;0;0
28.09.21;19:40:00;1;640;10945;0;2;0;5896;0;0;0;0;3;0;3746;0;0;0;0;4;0;5122;0;0;0;0;5;0;12961;2;0;0;0;0;0;6;0;9720;2;0;0;0;0;0;7;0;6644;0;0;0;0;8;0;6650;0;0;0;0;9;0;3566;0;0;0;0
28.09.21;19:35:00;1;719;10891;0;2;0;5896;0;0;0;0;3;0;3746;0;0;0;0;4;0;5122;0;0;0;0;5;0;12961;2;0;0;0;0;0;6;0;9720;2;0;0;0;0;0;7;0;6644;0;0;0;0;8;0;6650;0;0;0;0;9;0;3566;0;0;0;0
28.09.21;19:30:00;1;1330;10831;0;2;0;5896;0;0;0;0;3;0;3746;0;0;0;0;4;0;5122;0;0;0;0;5;0;12961;2;0;0;0;0;0;6;0;9720;2;0;0;0;0;0;7;0;6644;0;0;0;0;8;0;6650;0;0;0;0;9;0;3566;0;0;0;0
28.09.21;19:25:00;1;799;10734;0;2;0;5896;0;0;0;0;3;0;3746;0;0;0;0;4;0;5122;0;0;0;0;5;0;12961;2;0;0;0;0;0;6;0;9720;2;0;0;0;0;0;7;0;6644;0;0;0;0;8;0;6650;0;0;0;0;9;0;3566;0;0;0;0
28.09.21;19:20:00;1;947;10665;0;2;0;5896;0;0;0;0;3;0;3746;0;0;0;0;4;0;5122;0;0;0;0;5;0;12961;2;0;0;0;0;0;6;0;9720;2;0;0;0;0;0;7;0;6644;0;0;0;0;8;0;6650;0;0;0;0;9;0;3566;0;0;0;0
28.09.21;19:15:00;1;753;10587;0;2;0;5896;0;0;0;0;3;0;3746;0;0;0;0;4;0;5122;0;0;0;0;5;0;12961;2;0;0;0;0;0;6;0;9720;2;0;0;0;0;0;7;0;6644;0;0;0;0;8;0;6650;0;0;0;0;9;0;3566;0;0;0;0
28.09.21;19:10:00;1;678;10523;0;2;0;5896;0;0;0;0;3;0;3746;0;0;158;15;4;0;5122;0;0;0;0;5;0;12961;2;0;0;0;0;0;6;0;9720;2;0;0;0;0;0;7;0;6644;0;0;0;0;8;0;6650;0;0;0;0;9;0;3566;0;0;0;0
28.09.21;19:05:00;1;826;10474;0;2;0;5896;6;0;269;22;3;0;3746;6;0;309;25;4;0;5122;2;0;76;25;5;0;12961;2;0;0;0;0;0;6;0;9720;2;0;0;0;0;0;7;0;6644;0;0;0;0;8;0;6650;0;0;0;0;9;0;3566;0;0;0;0
28.09.21;19:00:00;1;323;10384;0;2;0;5896;6;0;299;22;3;0;3746;6;0;359;25;4;0;5122;1;0;106;25;5;0;12961;2;0;1;226;239;27;6;0;9720;2;242;233;17;16;6;7;0;6644;0;0;0;0;8;0;6650;0;0;0;0;9;0;3566;0;0;101;8
28.09.21;18:55:00;1;323;10359;0;2;0;5896;6;0;326;22;3;0;3746;6;0;410;25;4;0;5122;1;0;143;25;5;0;12961;23;0;0;357;391;35;6;0;9720;1;0;0;379;372;33;7;0;6644;6;0;285;27;8;0;6650;6;0;289;26;9;0;3566;6;0;306;23
28.09.21;18:50:00;1;349;10332;0;2;0;5896;6;0;349;23;3;0;3746;6;2;428;25;4;0;5122;1;0;179;26;5;7;12961;26;0;0;376;561;35;6;0;9720;26;0;0;510;506;33;7;0;6644;6;0;350;27;8;0;6650;6;0;355;27;9;0;3566;6;0;376;23
28.09.21;18:45:00;1;387;10303;0;2;0;5896;6;0;370;23;3;2;3746;4;7;437;26;4;0;5122;1;0;208;26;5;10;12961;26;0;2;394;623;35;6;6;9720;1;0;0;537;527;34;7;0;6644;6;0;415;28;8;0;6650;6;0;400;27;9;0;3566;6;0;441;23
28.09.21;18:40:00;1;437;10270;0;2;0;5896;6;0;386;23;3;0;3746;6;5;472;26;4;0;5122;3;0;200;27;5;81;12959;4;3;22;356;561;36;6;40;9719;1;2;10;530;512;34;7;0;6644;6;0;448;28;8;0;6650;6;2;434;27;9;0;3566;6;0;497;23
28.09.21;18:35:00;1;391;10233;0;2;0;5896;6;0;397;23;3;4;3746;6;12;468;26;4;7;5122;3;8;200;27;5;119;12952;4;27;42;356;562;36;6;89;9715;4;14;30;501;485;35;7;6;6644;3;11;434;28;8;4;6650;4;13;436;28;9;2;3566;3;7;479;23
28.09.21;18:30:00;1;370;10201;0;2;26;5896;6;43;375;24;3;9;3746;6;19;467;26;4;8;5121;3;9;199;27;5;146;12942;4;36;54;356;562;36;6;110;9708;4;22;42;501;485;35;7;7;6644;6;11;456;28;8;7;6649;3;12;455;28;9;3;3566;6;7;504;24
28.09.21;18:25:00;1;286;10171;0;2;64;5894;4;94;354;24;3;6;3745;6;10;511;26;4;30;5121;3;31;198;27;5;194;12929;4;72;75;356;562;36;6;145;9698;4;43;58;501;485;35;7;53;6643;4;76;362;28;8;45;6648;4;82;402;28;9;4;3566;6;8;519;24
28.09.21;18:20:00;1;307;10147;0;2;87;5889;4;117;358;24;3;41;3745;6;67;447;27;4;50;5118;3;52;198;27;5;237;12912;4;91;97;356;561;36;6;177;9686;4;60;74;501;485;35;7;67;6638;4;101;419;29;8;71;6645;4;103;390;28;9;8;3565;6;12;522;24
28.09.21;18:15:00;1;273;10121;0;2;106;5881;4;134;354;24;3;57;3741;4;93;459;27;4;73;5114;3;77;198;27;5;265;12893;4;104;110;356;561;36;6;199;9671;4;71;85;501;485;35;7;88;6633;4;123;423;29;8;87;6639;4;121;382;28;9;13;3565;6;22;505;24
28.09.21;18:10:00;1;313;10099;0;2;104;5872;4;136;353;25;3;59;3737;4;95;453;27;4;67;5108;3;70;198;27;5;269;12870;4;105;114;356;562;36;6;201;9654;4;74;90;501;485;35;7;85;6626;4;126;421;29;8;74;6631;4;124;379;28;9;9;3564;6;14;529;24
28.09.21;18:05:00;1;409;10070;0;2;120;5864;4;152;355;25;3;67;3732;4;107;474;27;4;80;5102;3;83;199;27;5;297;12848;4;125;119;356;561;36;6;224;9637;4;83;102;501;485;35;7;106;6618;4;135;419;29;8;108;6625;4;140;382;28;9;50;3563;4;70;354;25
28.09.21;18:00:00;1;408;10036;0;2;123;5854;4;154;360;25;3;73;3726;4;107;453;27;4;93;5095;3;96;199;27;5;306;12823;4;132;120;356;561;36;6;228;9619;4;87;101;501;485;35;7;110;6610;4;145;427;29;8;112;6616;4;147;390;28;9;53;3559;4;75;361;25
28.09.21;17:55:00;1;368;10002;0;2;133;5843;4;164;357;25;3;76;3720;4;112;469;27;4;95;5088;3;99;207;27;5;319;12797;4;138;128;356;561;36;6;242;9600;4;92;107;501;485;35;7;114;6600;4;148;444;29;8;121;6606;4;156;423;28;9;67;3554;4;90;442;25
28.09.21;17:50:00;1;352;9972;0;2;120;5832;4;152;359;25;3;63;3713;4;105;475;27;4;81;5080;5;84;202;27;5;301;12770;4;125;119;356;561;36;6;229;9579;4;81;102;501;485;35;7;69;6591;4;122;449;29;8;111;6596;4;142;418;28;9;25;3549;4;35;508;25
28.09.21;17:45:00;1;406;9942;0;2;115;5822;4;147;360;25;3;66;3708;4;104;469;27;4;83;5073;3;87;199;27;5;293;12746;4;121;117;356;561;36;6;222;9560;4;82;97;501;485;35;7;85;6585;4;125;440;29;8;103;6587;4;139;412;28;9;47;3547;4;68;361;25
28.09.21;17:40:00;1;2264;9898;0;2;123;5813;4;152;358;25;3;66;3703;4;107;484;28;4;84;5066;3;87;199;27;5;308;12721;4;130;127;356;561;36;6;235;9542;4;83;105;501;485;35;7;105;6578;4;141;417;29;8;112;6578;4;143;422;29;9;42;3543;4;60;409;25
28.09.21;17:35:00;1;2204;9711;0;2;112;5803;4;144;358;25;3;66;3697;4;102;448;28;4;78;5059;3;81;199;27;5;286;12696;4;121;118;356;562;36;6;215;9523;4;78;96;501;485;35;7;102;6569;4;130;382;29;8;102;6569;4;129;382;29;9;8;3540;6;11;533;25
28.09.21;17:30:00;1;2300;9527;0;2;138;5793;4;170;355;25;3;81;3692;4;118;459;28;4;97;5053;3;101;209;28;5;337;12672;4;151;144;356;561;36;6;252;9505;4;100;117;501;485;35;7;119;6560;4;150;377;29;8;121;6561;4;154;394;29;9;55;3539;6;76;476;26
28.09.21;17:25:00;1;978;9337;0;2;163;5782;4;195;358;26;3;92;3685;4;133;478;28;4;131;5044;5;136;213;28;5;382;12643;4;174;168;356;561;36;6;289;9483;4;124;133;501;485;35;7;151;6550;4;186;399;29;8;151;6550;4;190;406;29;9;80;3535;4;108;471;26
28.09.21;17:20:00;1;414;9263;0;2;188;5768;4;221;361;26;3;111;3677;4;149;484;28;4;153;5033;5;159;213;28;5;443;12611;4;200;185;372;561;36;6;326;9459;4;136;150;501;485;35;7;182;6538;4;215;420;29;8;179;6538;4;214;407;29;9;95;3528;4;124;474;26
28.09.21;17:15:00;1;438;9228;0;2;187;5752;4;219;352;26;3;108;3668;4;146;489;28;4;146;5021;5;152;216;28;5;438;12573;4;200;182;377;562;36;6;326;9431;4;136;148;501;485;35;7;176;6522;4;217;420;29;8;177;6523;4;212;445;29;9;97;3520;4;124;484;26
28.09.21;17:10:00;1;494;9188;0;2;184;5736;4;214;356;26;3;109;3659;4;150;476;28;4;149;5008;5;155;214;28;5;436;12537;4;201;178;375;561;37;6;326;9404;4;134;147;501;485;35;7;173;6508;4;209;437;29;8;172;6508;4;206;448;29;9;94;3512;4;122;472;27
28.09.21;17:05:00;1;757;9142;0;2;206;5721;4;239;358;26;3;123;3650;4;161;478;28;4;171;4996;5;178;215;28;5;493;12501;4;224;208;387;607;37;6;353;9377;4;144;164;501;485;35;7;192;6493;4;227;422;29;8;195;6494;4;230;424;29;9;100;3504;4;130;486;27
28.09.21;17:00:00;1;848;9078;0;2;239;5704;4;274;361;26;3;142;3640;4;182;484;28;4;201;4982;5;209;217;28;5;565;12459;4;267;238;385;593;37;6;406;9347;4;173;184;501;485;35;7;237;6477;4;270;432;29;8;235;6477;4;265;431;29;9;124;3496;4;154;477;27
28.09.21;16:55:00;1;848;9008;0;2;252;5684;4;285;359;27;3;153;3628;4;194;486;29;4;210;4965;5;219;218;28;5;569;12412;4;263;246;379;600;37;6;411;9313;4;172;189;501;485;35;7;244;6457;4;287;446;30;8;249;6458;4;286;452;29;9;132;3486;4;163;494;27
28.09.21;16:50:00;1;1944;8938;0;2;249;5663;4;283;364;27;3;154;3615;4;192;483;29;4;208;4947;5;217;217;28;5;571;12364;4;268;243;384;598;37;6;410;9279;4;176;191;501;485;35;7;237;6437;4;283;441;30;8;248;6437;4;286;438;29;9;134;3475;4;161;488;27
28.09.21;16:45:00;1;2712;8735;0;2;259;5642;4;293;366;27;3;162;3602;4;199;468;29;4;219;4930;5;228;218;28;5;591;12316;4;273;252;379;604;37;6;424;9244;4;182;194;501;485;35;7;275;6417;4;308;443;30;8;264;6416;4;310;443;29;9;145;3464;4;176;482;27
28.09.21;16:40:00;1;2685;8511;0;2;250;5621;4;285;359;27;3;152;3588;4;193;465;29;4;209;4912;5;218;219;29;5;573;12267;4;267;245;383;593;37;6;418;9209;4;175;196;506;513;35;7;257;6395;4;291;426;30;8;254;6394;4;293;418;30;9;136;3451;4;166;478;28
28.09.21;16:35:00;1;581;8332;0;2;316;5600;4;352;372;27;3;195;3575;4;237;473;29;4;269;4894;5;280;220;29;5;726;12218;4;351;308;391;615;37;6;535;9173;4;237;250;531;517;35;7;304;6373;4;339;434;30;8;285;6373;4;339;431;30;9;161;3440;4;191;476;28
28.09.21;16:30:00;1;542;8283;0;2;394;5573;4;436;371;28;3;246;3559;4;291;480;30;4;345;4872;5;359;224;29;5;914;12156;4;453;390;392;620;37;6;672;9128;4;300;318;536;525;35;7;382;6348;4;417;445;30;8;373;6349;4;420;446;30;9;200;3427;4;234;490;28
28.09.21;16:25:00;1;831;8238;0;2;483;5540;4;527;376;28;3;306;3539;4;353;478;30;4;423;4843;5;441;227;29;5;1066;12077;4;535;452;394;641;37;6;793;9070;4;349;372;540;531;35;7;506;6315;4;555;449;30;8;514;6318;4;559;448;30;9;275;3410;4;312;494;29
28.09.21;16:20:00;1;956;8152;0;2;472;5500;4;515;371;28;3;298;3513;4;344;476;30;4;410;4808;5;427;226;29;5;1029;11989;4;512;441;395;627;37;6;767;9004;4;339;359;541;526;35;7;521;6274;4;567;457;30;8;529;6275;4;571;446;30;9;283;3387;4;320;488;29
28.09.21;16:15:00;1;655;8085;0;2;442;5461;4;486;370;28;3;281;3488;4;324;481;30;4;383;4773;5;398;224;29;5;953;11904;4;456;409;389;635;37;6;704;8941;4;316;331;540;522;35;7;464;6230;4;514;436;30;8;473;6231;4;520;443;30;9;252;3363;4;291;490;29
28.09.21;16:10:00;1;647;8032;0;2;559;5424;4;605;378;29;3;352;3465;4;400;480;30;4;479;4741;5;499;227;29;5;1186;11824;4;586;509;394;628;37;6;874;8883;4;390;392;559;513;35;7;551;6191;4;598;457;30;8;555;6191;4;602;449;30;9;294;3342;4;334;501;29
28.09.21;16:05:00;1;697;7977;0;2;705;5377;4;755;378;29;3;451;3435;4;502;489;30;4;613;4701;5;639;229;29;5;1464;11722;4;755;627;403;642;37;6;1091;8807;4;504;514;559;537;35;7;745;6145;4;791;454;30;8;735;6145;4;785;448;30;9;396;3318;4;440;506;29
28.09.21;16:00:00;1;732;7919;0;2;713;5318;4;763;380;29;3;458;3398;4;510;491;30;4;629;4650;5;655;230;29;5;1530;11598;4;784;658;409;646;37;6;1154;8714;4;536;540;569;534;35;7;780;6083;4;822;453;30;8;778;6084;4;828;446;30;9;422;3285;4;469;501;29
28.09.21;15:55:00;1;715;7858;0;2;617;5259;4;666;380;29;3;397;3360;4;445;481;30;4;541;4598;5;563;229;29;5;1325;11473;4;657;555;399;635;37;6;1001;8619;4;457;472;564;540;35;7;686;6018;4;733;449;30;8;688;6019;4;739;446;30;9;370;3250;4;414;495;29
28.09.21;15:50:00;1;679;7799;0;2;600;5207;4;649;381;29;3;384;3326;4;429;478;30;4;523;4553;5;544;228;29;5;1278;11362;4;634;553;397;637;37;6;961;8536;4;431;455;563;540;35;7;655;5961;4;696;445;30;8;663;5962;4;711;447;30;9;353;3219;4;395;493;29
28.09.21;15:45:00;1;615;7742;0;2;578;5158;4;624;373;29;3;368;3294;4;416;481;30;4;504;4509;5;525;228;29;5;1262;11257;4;630;540;397;642;37;6;943;8457;4;433;436;561;535;35;7;616;5907;4;661;450;30;8;616;5907;4;665;455;30;9;332;3190;4;373;491;29
28.09.21;15:40:00;1;551;7691;0;2;561;5109;4;606;376;29;3;357;3264;4;402;476;30;4;486;4467;5;506;227;29;5;1216;11152;4;605;522;399;637;37;6;910;8378;4;406;427;567;541;35;7;587;5855;4;628;453;30;8;586;5855;4;633;457;30;9;312;3162;4;353;485;29
28.09.21;15:35:00;1;782;7645;0;2;714;5062;4;766;379;29;3;455;3234;4;507;485;31;4;615;4426;5;641;229;30;5;1475;11050;4;753;635;401;640;37;6;1105;8302;4;514;522;572;530;35;7;735;5806;4;787;444;30;8;743;5806;4;791;449;30;9;399;3136;4;442;500;29
28.09.21;15:30:00;1;1194;7577;0;2;721;5003;4;773;378;29;3;462;3196;4;514;484;31;4;631;4375;5;657;225;30;5;1524;10926;4;785;661;399;640;37;6;1146;8208;4;524;547;575;540;35;7;791;5745;4;851;450;30;8;800;5745;4;851;442;30;9;435;3102;4;480;499;29
28.09.21;15:25:00;1;1174;7443;0;2;754;4943;4;805;379;30;3;484;3158;4;538;494;31;4;660;4323;5;687;225;30;5;1599;10799;4;824;691;397;643;37;6;1201;8112;4;556;573;570;533;35;7;855;5679;4;906;448;30;8;856;5678;4;911;454;30;9;465;3066;4;511;496;29
28.09.21;15:20:00;1;822;7367;0;2;766;4880;4;818;379;30;3;494;3117;4;544;494;31;4;671;4268;5;699;226;30;5;1633;10665;4;842;707;398;645;37;6;1225;8013;4;569;586;568;545;35;7;852;5608;4;913;447;30;8;865;5607;4;920;453;30;9;467;3028;4;518;501;29
28.09.21;15:15:00;1;826;7298;0;2;812;4816;4;866;379;30;3;522;3076;4;576;497;31;4;717;4212;5;746;228;30;5;1744;10529;4;901;758;405;638;37;6;1315;7910;4;619;623;575;543;35;7;897;5537;4;953;460;30;8;891;5534;4;954;458;30;9;484;2988;4;530;490;29
28.09.21;15:10:00;1;907;7229;0;2;805;4749;4;856;385;30;3;517;3033;4;571;497;31;4;709;4152;5;739;228;30;5;1738;10383;4;895;757;404;649;37;6;1312;7800;4;625;618;582;543;35;7;908;5462;4;960;456;30;8;900;5460;4;962;454;29;9;490;2948;4;539;494;29
28.09.21;15:05:00;1;1057;7153;0;2;942;4681;4;1000;387;30;3;606;2989;4;663;497;31;4;828;4093;5;862;233;30;5;1985;10236;4;1030;863;408;651;37;6;1500;7689;4;721;709;578;545;35;7;1061;5387;4;1126;460;30;8;1065;5385;4;1129;456;29;9;576;2907;4;628;514;29
28.09.21;15:00:00;1;1024;7063;0;2;979;4603;4;1037;386;30;3;634;2939;4;692;502;31;4;858;4024;5;894;232;30;5;2030;10069;4;1058;886;403;652;37;6;1532;7563;4;734;732;572;546;35;7;1072;5299;4;1137;458;30;8;1082;5297;4;1143;460;29;9;469;2860;4;513;409;23
28.09.21;14:55:00;1;1175;6977;0;2;916;4522;4;975;385;30;3;588;2886;4;647;502;31;4;807;3953;5;841;231;30;5;1920;9901;4;987;838;408;658;37;6;1460;7436;4;701;687;575;543;35;7;1027;5210;4;1093;456;30;8;1037;5208;4;1096;454;29;9;337;2812;4;370;303;17
28.09.21;14:50:00;1;1038;6890;0;2;800;4445;4;850;377;30;3;517;2837;4;569;497;31;4;704;3885;5;734;228;30;5;1700;9742;4;873;738;405;638;37;6;1288;7315;4;613;604;568;542;35;7;912;5124;4;967;457;30;8;912;5121;4;973;447;29;9;496;2764;4;546;499;29
28.09.21;14:45:00;1;905;6803;0;2;918;4378;4;976;385;30;3;590;2794;4;648;499;31;4;816;3827;5;850;232;30;5;1985;9601;4;1046;862;402;640;37;6;1496;7209;4;710;715;571;546;35;7;1018;5048;4;1076;465;30;8;1018;5045;4;1075;452;29;9;546;2723;4;599;511;29
28.09.21;14:40:00;1;1574;6727;0;2;959;4303;4;1020;387;30;3;618;2745;4;676;497;31;4;850;3760;5;885;230;29;5;2036;9434;4;1059;884;404;658;37;6;1539;7083;4;734;741;576;547;35;7;1059;4965;4;1121;461;30;8;1057;4961;4;1125;454;29;9;576;2678;4;629;513;29
28.09.21;14:35:00;1;777;6616;0;2;930;4223;4;988;386;30;3;598;2694;4;657;497;31;4;816;3689;5;849;229;29;5;1951;9267;4;1010;848;403;661;37;6;1467;6956;4;700;700;576;547;35;7;1058;4876;4;1125;461;30;8;1057;4873;4;1122;455;29;9;570;2630;4;624;514;29
28.09.21;14:30:00;1;775;6551;0;2;1073;4145;4;1136;384;30;3;696;2644;4;755;497;31;4;943;3621;5;982;234;29;5;2213;9103;4;1169;968;406;657;37;6;1667;6833;4;796;797;570;547;35;7;1168;4788;4;1238;462;30;8;1176;4785;4;1244;454;29;9;642;2582;4;694;509;29